This is the latest recevied weather packets stored in our database for station/object EA3EH-1. If no packets are shown the sender has not sent any weather packets the latest 10 day(s).
| Time | Temp. | Humidity | Pressure | Rain* | Wind** | Luminosity | Snow |
|---|---|---|---|---|---|---|---|
| 1777705305 | 14.44° C | 51% | 1020 hPa | 0 mm | - | - | - |
| 1777704706 | 13.89° C | 52% | 1020 hPa | 0 mm | - | - | - |
| 1777704408 | 13.89° C | 53% | 1020 hPa | 0 mm | - | - | - |
| 1777704106 | 13.89° C | 54% | 1020 hPa | 0 mm | - | - | - |
| 1777703806 | 13.89° C | 55% | 1020 hPa | 0 mm | - | - | - |
| 1777702906 | 13.33° C | 58% | 1020 hPa | 0 mm | - | - | - |
| 1777702305 | 13.33° C | 60% | 1020 hPa | 0 mm | - | - | - |
| 1777702004 | 13.33° C | 60% | 1020 hPa | 0 mm | - | - | - |
| 1777701105 | 12.78° C | 62% | 1020 hPa | 0 mm | - | - | - |
| 1777700504 | 12.78° C | 62% | 1020 hPa | 0 mm | - | - | - |
| 1777700205 | 12.78° C | 62% | 1020 hPa | 0 mm | - | - | - |
| 1777699904 | 12.78° C | 63% | 1020 hPa | 0 mm | - | - | - |
| 1777699605 | 12.78° C | 64% | 1020 hPa | 0 mm | - | - | - |
| 1777699004 | 12.22° C | 61% | 1020 hPa | 0 mm | - | - | - |
| 1777698708 | 12.78° C | 60% | 1020 hPa | 0 mm | - | - | - |
| 1777698405 | 12.78° C | 60% | 1019 hPa | 0 mm | - | - | - |
| 1777698104 | 12.78° C | 61% | 1019 hPa | 0 mm | - | - | - |
| 1777697805 | 12.78° C | 61% | 1019 hPa | 0 mm | - | - | - |
| 1777696905 | 12.78° C | 62% | 1019 hPa | 0 mm | - | - | - |
| 1777696605 | 12.78° C | 61% | 1019 hPa | 0 mm | - | - | - |
| 1777696306 | 12.78° C | 61% | 1019 hPa | 0 mm | - | - | - |
| 1777696005 | 12.78° C | 62% | 1019 hPa | 0 mm | - | - | - |
| 1777695705 | 12.78° C | 62% | 1019 hPa | 0 mm | - | - | - |
| 1777694204 | 12.22° C | 63% | 1020 hPa | 0 mm | - | - | - |
| 1777693910 | 12.22° C | 63% | 1020 hPa | 0 mm | - | - | - |
* Rain latest hour (hover to see other rain measurements)
** Current wind speed in m/s (hover to see current wind gust speed)